Simultaneous Nadir Overpasses (SNOs) Predictions

Prediction of SNOs between GOES-16 and METOP-B Satellite Orbit:

Table of predicted SNOs for the next 14.0 days since TLE Epoch: 9/30/2023
Index Date Time (GOES-16) GOES-16 Lat,Lon METOP-B Lat,Lon Distance(km) Time Diff (sec)
1 10/02/2023 14:28:47 -0.06, -75.23 -0.14, -74.82 47.19 80
2 10/04/2023 02:45:06 0.05, -75.22 -0.89, -79.41 477.47 80
3 10/05/2023 02:27:07 0.05, -75.23 0.25, -74.43 92.63 80
4 10/06/2023 14:43:17 -0.05, -75.26 0.78, -78.98 423.77 80
5 10/07/2023 14:25:17 -0.04, -75.28 -0.32, -73.99 146.73 80
6 10/09/2023 02:44:16 0.04, -75.28 -0.70, -78.58 376.61 80
7 10/10/2023 02:20:55 0.04, -75.30 0.40, -73.59 194.37 80
8 10/11/2023 14:42:27 -0.04, -75.34 0.56, -78.16 320.53 80
9 10/12/2023 14:19:06 -0.04, -75.36 -0.54, -73.16 250.95 80
10 10/14/2023 02:40:45 0.04, -75.38 -0.52, -77.75 270.93 80
